{"data":{"norad_id":60095,"epoch":"2026-09-21T13:28:23.667456Z","epoch_age_seconds":85648,"freshness":"FRESH","line1":"1 60095U 24117E   26264.56138504 -.00000675  00000+0 -88388-5 0  9996","line2":"2 60095  53.1586 204.6041 0001820  90.0760 270.0451 15.34382625126917","mean_motion":15.34382625,"eccentricity":0.000182,"inclination_deg":53.1586,"raan_deg":204.6041,"arg_perigee_deg":90.076,"mean_anomaly_deg":270.0451,"bstar":-8.8388e-6,"rev_number":12691,"period_min":93.848820792011,"perigee_km":461.50984053336,"apogee_km":463.99992517872,"semimajor_km":6840.891882856,"source":"CELESTRAK","updated_at":"2026-09-22T09:00:49.150341Z"}}